This is the latest recevied weather packets stored in our database for station/object N3WPH. If no packets are shown the sender has not sent any weather packets the latest 10 day(s).
| Time | Temp. | Humidity | Pressure | Rain* | Wind** | Luminosity | Snow |
|---|---|---|---|---|---|---|---|
| 1777925763 | 22.78° C | 36% | 1008.2 hPa | 0 mm | - | 503 W/m² | - |
| 1777925461 | 22.78° C | 40% | 1008.3 hPa | 0 mm | - | 524 W/m² | - |
| 1777925156 | 22.22° C | 36% | 1008.3 hPa | 0 mm | - | 553 W/m² | - |
| 1777924854 | 21.67° C | 36% | 1008.3 hPa | 0 mm | - | 542 W/m² | - |
| 1777924550 | 21.67° C | 35% | 1008.2 hPa | 0 mm | - | 552 W/m² | - |
| 1777924246 | 22.22° C | 37% | 1008.5 hPa | 0 mm | - | 263 W/m² | - |
| 1777923943 | 22.22° C | 37% | 1008.8 hPa | 0 mm | - | 582 W/m² | - |
| 1777923638 | 21.67° C | 37% | 1008.5 hPa | 0 mm | - | 592 W/m² | - |
| 1777923335 | 21.67° C | 38% | 1008.9 hPa | 0 mm | - | 404 W/m² | - |
| 1777923034 | 22.22° C | 36% | 1008.8 hPa | 0 mm | - | 619 W/m² | - |
| 1777922732 | 22.78° C | 38% | 1008.6 hPa | 0 mm | - | 630 W/m² | - |
| 1777922430 | 21.67° C | 39% | 1008.9 hPa | 0 mm | - | 662 W/m² | - |
| 1777922127 | 21.67° C | 40% | 1008.9 hPa | 0 mm | - | 655 W/m² | - |
| 1777921823 | 21.67° C | 37% | 1009.1 hPa | 0 mm | - | 663 W/m² | - |
| 1777921520 | 21.11° C | 38% | 1009 hPa | 0 mm | - | 721 W/m² | - |
| 1777921216 | 20.56° C | 39% | 1009.3 hPa | 0 mm | - | 718 W/m² | - |
| 1777920913 | 21.11° C | 38% | 1009 hPa | 0 mm | - | 215 W/m² | - |
| 1777920609 | 21.11° C | 38% | 1009.2 hPa | 0 mm | - | 606 W/m² | - |
| 1777920304 | 21.67° C | 38% | 1009 hPa | 0 mm | - | 756 W/m² | - |
| 1777920000 | 21.67° C | 36% | 1009.3 hPa | 0 mm | - | 734 W/m² | - |
| 1777919697 | 21.67° C | 42% | 1009.3 hPa | 0 mm | - | 730 W/m² | - |
| 1777919395 | 21.11° C | 37% | 1009.2 hPa | 0 mm | - | 739 W/m² | - |
| 1777919092 | 21.11° C | 37% | 1009.2 hPa | 0 mm | - | 733 W/m² | - |
| 1777918789 | 21.11° C | 39% | 1009.4 hPa | 0 mm | - | 742 W/m² | - |
| 1777918486 | 21.67° C | 38% | 1009.3 hPa | 0 mm | - | 760 W/m² | - |
* Rain latest hour (hover to see other rain measurements)
** Current wind speed in m/s (hover to see current wind gust speed)